• In Österreich
  • Länderverzeichnis
  • Für 7 Tage
  • Wassertemperatur
  • Satellitenkarten
  • Wetterkarte
  • News
  • Widgets
  • user-avatar
    Anmelden

    Stündliche Wetter Osiecko

    Heute, 23 April, Montag

    Zeit Temperatur Niederschläge Wind Luftdruck Luftfeuchtigkeit
    00:00 +13°C° 0,1 mm 3 m/S 753 mmHg 66%
    01:00 +13°C° 0,1 mm 3 m/S 752 mmHg 69%
    02:00 +13°C° 0,4 mm 3 m/S 752 mmHg 73%
    03:00 +12°C° 0,4 mm 3 m/S 751 mmHg 76%
    04:00 +12°C° 0,4 mm 3 m/S 751 mmHg 80%
    05:00 +13°C° 0,3 mm 3 m/S 751 mmHg 80%
    06:00 +14°C° 0,3 mm 3 m/S 751 mmHg 81%
    07:00 +16°C° 0,3 mm 3 m/S 751 mmHg 82%
    08:00 +18°C° 0,1 mm 4 m/S 751 mmHg 76%
    09:00 +20°C° 0,1 mm 4 m/S 751 mmHg 70%
    10:00 +22°C° 0,1 mm 4 m/S 751 mmHg 64%
    11:00 +22°C° 0,6 mm 5 m/S 751 mmHg 64%
    12:00 +22°C° 0,6 mm 5 m/S 751 mmHg 64%
    13:00 +22°C° 0,6 mm 5 m/S 751 mmHg 64%
    14:00 +21°C° 0,7 mm 5 m/S 751 mmHg 65%
    15:00 +21°C° 0,7 mm 5 m/S 751 mmHg 67%
    16:00 +20°C° 0,7 mm 5 m/S 751 mmHg 68%
    17:00 +19°C° 0,2 mm 5 m/S 752 mmHg 72%
    18:00 +17°C° 0,2 mm 4 m/S 752 mmHg 75%
    19:00 +16°C° 0,2 mm 3 m/S 752 mmHg 79%
    20:00 +14°C° 0 mm 3 m/S 753 mmHg 82%
    21:00 +13°C° 0 mm 2 m/S 753 mmHg 85%
    22:00 +12°C° 0 mm 1 m/S 753 mmHg 88%
    23:00 +12°C° 0 mm 2 m/S 754 mmHg 89%

    Morgen, 24 April, Dienstag

    Zeit Temperatur Niederschläge Wind Luftdruck Luftfeuchtigkeit
    00:00 +10°C° 0 mm 2 m/S 754 mmHg 90%
    01:00 +10°C° 0 mm 2 m/S 754 mmHg 91%
    02:00 +9°C° 0 mm 2 m/S 754 mmHg 90%
    03:00 +9°C° 0 mm 2 m/S 754 mmHg 90%
    04:00 +9°C° 0 mm 2 m/S 754 mmHg 90%
    05:00 +9°C° 0 mm 3 m/S 755 mmHg 87%
    06:00 +10°C° 0 mm 3 m/S 755 mmHg 83%
    07:00 +11°C° 0 mm 4 m/S 755 mmHg 79%
    08:00 +12°C° 0 mm 4 m/S 755 mmHg 71%
    09:00 +14°C° 0 mm 4 m/S 755 mmHg 63%
    10:00 +15°C° 0 mm 5 m/S 755 mmHg 55%
    11:00 +16°C° 0 mm 5 m/S 754 mmHg 52%
    12:00 +19°C° 0 mm 5 m/S 754 mmHg 50%
    13:00 +20°C° 0 mm 6 m/S 753 mmHg 47%
    14:00 +20°C° 0 mm 6 m/S 753 mmHg 49%
    15:00 +20°C° 0 mm 5 m/S 753 mmHg 51%
    16:00 +20°C° 0 mm 5 m/S 752 mmHg 53%
    17:00 +17°C° 0,2 mm 5 m/S 752 mmHg 61%
    18:00 +15°C° 0,2 mm 4 m/S 752 mmHg 68%
    19:00 +14°C° 0,2 mm 4 m/S 752 mmHg 76%
    20:00 +13°C° 0,1 mm 4 m/S 753 mmHg 79%
    21:00 +13°C° 0,1 mm 3 m/S 753 mmHg 82%
    22:00 +12°C° 0,1 mm 3 m/S 753 mmHg 85%
    23:00 +13°C° 0,1 mm 2 m/S 753 mmHg 87%

    übermorgen, 25 April, Mittwoch

    Zeit Temperatur Niederschläge Wind Luftdruck Luftfeuchtigkeit
    00:00 +12°C° 0,1 mm 2 m/S 753 mmHg 89%
    01:00 +12°C° 0,1 mm 2 m/S 753 mmHg 90%
    02:00 +12°C° 0 mm 2 m/S 752 mmHg 91%
    03:00 +12°C° 0 mm 2 m/S 752 mmHg 92%
    04:00 +12°C° 0 mm 2 m/S 752 mmHg 93%
    05:00 +11°C° 0,5 mm 3 m/S 751 mmHg 91%
    06:00 +12°C° 0,5 mm 3 m/S 751 mmHg 90%
    07:00 +12°C° 0,5 mm 4 m/S 751 mmHg 89%
    08:00 +13°C° 0,2 mm 5 m/S 750 mmHg 84%
    09:00 +15°C° 0,2 mm 5 m/S 750 mmHg 80%
    10:00 +16°C° 0,2 mm 6 m/S 750 mmHg 75%
    11:00 +16°C° 0,5 mm 7 m/S 750 mmHg 74%
    12:00 +16°C° 0,5 mm 7 m/S 750 mmHg 73%
    13:00 +16°C° 0,5 mm 7 m/S 750 mmHg 72%
    14:00 +15°C° 0,3 mm 6 m/S 750 mmHg 74%
    15:00 +14°C° 0,3 mm 5 m/S 750 mmHg 76%
    16:00 +13°C° 0,3 mm 4 m/S 751 mmHg 78%
    17:00 +12°C° 0 mm 4 m/S 751 mmHg 80%
    18:00 +12°C° 0 mm 3 m/S 751 mmHg 81%
    19:00 +12°C° 0 mm 2 m/S 752 mmHg 82%
    20:00 +10°C° 0 mm 2 m/S 752 mmHg 85%
    21:00 +9°C° 0 mm 2 m/S 753 mmHg 88%
    22:00 +9°C° 0 mm 2 m/S 753 mmHg 90%
    23:00 +9°C° 0,1 mm 2 m/S 753 mmHg 91%

    26 April, Donnerstag

    Zeit Temperatur Niederschläge Wind Luftdruck Luftfeuchtigkeit
    00:00 +9°C° 0,1 mm 3 m/S 753 mmHg 91%
    01:00 +9°C° 0,1 mm 3 m/S 753 mmHg 91%
    02:00 +8°C° 0 mm 3 m/S 754 mmHg 92%
    03:00 +6°C° 0 mm 4 m/S 754 mmHg 93%
    04:00 +6°C° 0 mm 4 m/S 754 mmHg 94%
    05:00 +6°C° 0 mm 4 m/S 754 mmHg 90%
    06:00 +7°C° 0 mm 4 m/S 754 mmHg 85%
    07:00 +8°C° 0 mm 3 m/S 755 mmHg 81%
    08:00 +10°C° 0 mm 4 m/S 754 mmHg 72%
    09:00 +12°C° 0 mm 4 m/S 754 mmHg 62%
    10:00 +13°C° 0 mm 4 m/S 754 mmHg 53%
    11:00 +14°C° 0 mm 4 m/S 754 mmHg 50%
    12:00 +15°C° 0 mm 4 m/S 753 mmHg 47%
    13:00 +17°C° 0 mm 4 m/S 753 mmHg 45%
    14:00 +15°C° 0,2 mm 4 m/S 752 mmHg 50%
    15:00 +14°C° 0,2 mm 4 m/S 752 mmHg 56%
    16:00 +14°C° 0,2 mm 4 m/S 751 mmHg 62%
    17:00 +13°C° 0,2 mm 3 m/S 751 mmHg 66%
    18:00 +12°C° 0,2 mm 3 m/S 751 mmHg 70%
    19:00 +11°C° 0,2 mm 3 m/S 751 mmHg 74%
    20:00 +10°C° 0 mm 3 m/S 752 mmHg 78%
    21:00 +9°C° 0 mm 3 m/S 752 mmHg 81%
    22:00 +8°C° 0 mm 3 m/S 753 mmHg 84%
    23:00 +8°C° 0 mm 3 m/S 753 mmHg 87%

    27 April, Freitag

    Zeit Temperatur Niederschläge Wind Luftdruck Luftfeuchtigkeit
    00:00 +7°C° 0 mm 3 m/S 753 mmHg 89%
    01:00 +5°C° 0 mm 3 m/S 754 mmHg 92%
    02:00 +5°C° 0 mm 3 m/S 754 mmHg 93%
    03:00 +4°C° 0 mm 3 m/S 754 mmHg 94%
    04:00 +4°C° 0 mm 3 m/S 754 mmHg 95%
    05:00 +5°C° 0 mm 3 m/S 755 mmHg 89%
    06:00 +6°C° 0 mm 4 m/S 755 mmHg 83%
    07:00 +7°C° 0 mm 4 m/S 755 mmHg 77%
    08:00 +8°C° 0 mm 4 m/S 755 mmHg 69%
    09:00 +10°C° 0 mm 5 m/S 755 mmHg 61%
    10:00 +12°C° 0 mm 5 m/S 756 mmHg 53%
    11:00 +13°C° 0,1 mm 5 m/S 755 mmHg 49%
    12:00 +14°C° 0,1 mm 5 m/S 755 mmHg 46%
    13:00 +15°C° 0,1 mm 5 m/S 755 mmHg 43%
    14:00 +15°C° 0 mm 4 m/S 755 mmHg 43%
    15:00 +14°C° 0 mm 4 m/S 755 mmHg 44%
    16:00 +14°C° 0 mm 4 m/S 755 mmHg 45%
    17:00 +13°C° 0 mm 3 m/S 755 mmHg 50%
    18:00 +13°C° 0 mm 2 m/S 755 mmHg 55%
    19:00 +12°C° 0 mm 2 m/S 755 mmHg 60%
    20:00 +11°C° 0 mm 1 m/S 755 mmHg 63%
    21:00 +10°C° 0 mm 1 m/S 756 mmHg 65%
    22:00 +9°C° 0 mm 1 m/S 756 mmHg 68%
    23:00 +8°C° 0 mm 1 m/S 756 mmHg 70%

    28 April, Samstag

    Zeit Temperatur Niederschläge Wind Luftdruck Luftfeuchtigkeit
    00:00 +8°C° 0 mm 1 m/S 756 mmHg 72%
    01:00 +7°C° 0 mm 1 m/S 756 mmHg 73%
    02:00 +7°C° 0 mm 1 m/S 756 mmHg 75%
    03:00 +7°C° 0 mm 1 m/S 756 mmHg 77%
    04:00 +6°C° 0 mm 1 m/S 756 mmHg 78%
    05:00 +8°C° 0 mm 1 m/S 756 mmHg 75%
    06:00 +9°C° 0 mm 1 m/S 756 mmHg 71%
    07:00 +9°C° 0 mm 2 m/S 757 mmHg 67%
    08:00 +12°C° 0 mm 2 m/S 757 mmHg 61%
    09:00 +14°C° 0 mm 2 m/S 757 mmHg 54%
    10:00 +14°C° 0 mm 3 m/S 756 mmHg 48%
    11:00 +16°C° 0 mm 3 m/S 756 mmHg 46%
    12:00 +17°C° 0 mm 3 m/S 756 mmHg 45%
    13:00 +18°C° 0 mm 3 m/S 755 mmHg 43%
    14:00 +19°C° 0 mm 4 m/S 755 mmHg 44%
    15:00 +19°C° 0 mm 4 m/S 755 mmHg 46%
    16:00 +19°C° 0 mm 5 m/S 754 mmHg 47%
    17:00 +18°C° 0 mm 4 m/S 754 mmHg 52%
    18:00 +17°C° 0 mm 4 m/S 754 mmHg 57%
    19:00 +15°C° 0 mm 4 m/S 753 mmHg 61%
    20:00 +14°C° 0 mm 4 m/S 753 mmHg 60%
    21:00 +14°C° 0 mm 5 m/S 753 mmHg 59%
    22:00 +14°C° 0 mm 5 m/S 753 mmHg 57%
    23:00 +14°C° 0 mm 6 m/S 753 mmHg 57%
    Mehr zeigen